Погода в Михайловке

Россия / Республика Татарстан     55°14′26″N   52°55′47″E
темп.,
°C
ветер,
м/с
пор.,
м/с
влажн.,
%
обл.,
%
осадки,
мм/ч
давл.,
гПа
погр.,
м
18 мая, вт
вт1800:00+19ссз235896 0.2 101754
03:00+17з117545 0.2 101711
06:00+21св226619 0.0 1017157
09:00+25ссв445239 0.0 1017739
12:00+28св33415 0.0 10171241
15:00+28ссв443980 0.0 10171720
18:00+23всв5106011 0.2 1017322
21:00+18сз117593 1.3 101911
19 мая, ср
ср1900:00+15всв23815 0.0 101941
03:00+13всв39862 0.0 1018159
06:00+16в610760 0.0 1019346
09:00+20в68590 0.0 1020923
12:00+24в67472 0.0 10191520
15:00+25в66425 0.0 10191666
18:00+22в48578 0.0 1019233
21:00+17вюв41063100 0.0 1020174
20 мая, чт
чт2000:00+15вюв33635 0.0 102046
03:00+14ююв336674 0.0 102039
06:00+17юв496162 0.0 1020305
09:00+21юв57480 0.0 1020940
12:00+24юв68380 0.0 10181900
15:00+23юв79364 0.0 10172081
18:00+21юв4105316 0.0 1016313
21:00+17юв5145898 0.0 1015311
21 мая, пт
пт2100:00+15юв376630 0.0 1015134
03:00+14ююв248099 0.0 101578
06:00+17ю467911 0.1 1016413
09:00+20ююз565880 0.1 10161487
12:00+22ююз6847100 0.1 10152368
15:00+20юз595982 0.1 1016705
18:00+19юз48640 0.1 1016564
21:00+17ююз376986 0.1 1017199
22 мая, сб
сб2200:00+14ююз39824 0.0 1017170
03:00+13зюз379066 0.0 1018144
06:00+15з4778100 0.0 1019452
09:00+19з6763100 0.0 10201297
12:00+20з6757100 0.0 10211445
15:00+21з565165 0.0 10211702
18:00+18зюз356960 0.0 1021208
21:00+15с227898 0.0 102018